Location: New Town
(33.2710°N, 90.7534°W)
Time: 13:31:52
(UTC+00:00)

Explorer 11/Cluster Stage 4 - Pass Details

Date: 13 May 2021
Orbit: 467 x 1257 km, 28.8° (Epoch: 14 June)

Event Time Altitude Azimuth Distance (km) Brightness Sun altitude
Rises 03:43:29 0° 256° (WSW) 4,185 10.6 -29.0°
Reaches altitude 10° 03:46:28 10° 254° (WSW) 3,227 9.9 -29.3°
Enters shadow 03:53:39 58° 206° (SSW) 1,391 7.5 -30.2°
Maximum altitude 03:54:35 62° 176° (S) 1,338 - -30.3°
Drops below altitude 10° 04:01:58 10° 97° (E) 2,948 - -31.2°
Sets 04:04:35 0° 94° (E) 3,806 - -31.5°
